Weather History for KPWK - January, 2013

Change the Weather History Date:

Monday, January 7, 2013

  Actual Average Record
Temperature  
Mean Temperature 30 °F 24 °F  
Max Temperature 41 °F 31 °F 65 °F (2008)
Min Temperature 18 °F 17 °F -11 °F (2014)
Degree Days  
Heating Degree Days 35 41  
Month to date heating degree days 280 287  
Since 1 July heating degree days 2503 2704  
Cooling Degree Days 0 0  
Month to date cooling degree days 0 0  
Year to date cooling degree days 0 0  
Moisture  
Dew Point 21 °F    
Average Humidity 72    
Maximum Humidity 88    
Minimum Humidity 47    
Precipitation  
Precipitation 0.00 in 0.05 in 0.04 in (2010)
Month to date precipitation 0.05 0.36  
Year to date precipitation 0.05 0.36  
Sea Level Pressure  
Sea Level Pressure 30.24 in    
Wind  
Wind Speed 11 mph (SSW)    
Max Wind Speed 23 mph    
Max Gust Speed 30 mph    
Visibility 9 miles    
Events      
T = Trace of Precipitation, MM = Missing Value Source: NWS Daily Summary

Daily Weather History Graph

Daily Weather History Graph

Search for Another Location

Airport or City:

Trip Planner

Search our weather history database for the weather conditions in past years. The results will help you decide how hot, cold, wet, or windy it might be!

Date:

Astronomy

Jan. 07, 2013 Rise Set
Actual Time 7:19 AM CST 4:36 PM CST
Civil Twilight 6:48 AM CST 5:07 PM CST
Nautical Twilight 6:13 AM CST 5:42 PM CST
Astronomical Twilight 5:39 AM CST 6:16 PM CST
Moon 2:42 AM CST (1/7) 12:48 PM CST (1/7)
Length of Visible Light 10h 19m
Length of Day
9h 16m
Waning Crescent, 22% of the Moon is Illuminated
Jan 7
Waning Crescent
Jan 11
New
Jan 18
First Quarter
Jan 26
Full
Feb 3
Last Quarter

Hourly Weather History & Observations

Time (CST) Temp. Windchill Dew Point Humidity Pressure Visibility Wind Dir Wind Speed Gust Speed Precip Events Conditions
12:52 AM 19.0 °F 12.3 °F 16.0 °F 88% 30.34 in 5.0 mi SSW 4.6 mph - N/A   Clear
1:52 AM 19.0 °F 12.3 °F 16.0 °F 88% 30.35 in 6.0 mi SSW 4.6 mph - N/A   Clear
2:52 AM 18.0 °F 9.8 °F 15.1 °F 88% 30.35 in 7.0 mi South 5.8 mph - N/A   Clear
3:52 AM 18.0 °F 9.8 °F 15.1 °F 88% 30.35 in 7.0 mi South 5.8 mph - N/A   Clear
4:52 AM 19.0 °F 10.0 °F 15.1 °F 85% 30.34 in 8.0 mi South 6.9 mph - N/A   Clear
5:52 AM 19.9 °F 11.1 °F 16.0 °F 85% 30.35 in 7.0 mi South 6.9 mph - N/A   Clear
6:52 AM 21.0 °F 11.4 °F 17.1 °F 85% 30.35 in 9.0 mi South 8.1 mph - N/A   Clear
7:52 AM 23.0 °F 12.4 °F 17.1 °F 78% 30.34 in 9.0 mi SSW 10.4 mph - N/A   Clear
8:52 AM 26.1 °F 13.6 °F 19.0 °F 75% 30.33 in 10.0 mi South 16.1 mph - N/A   Clear
9:52 AM 28.9 °F 18.2 °F 19.9 °F 69% 30.31 in 10.0 mi South 13.8 mph 23.0 mph N/A   Clear
10:52 AM 33.1 °F 22.2 °F 19.9 °F 59% 30.27 in 10.0 mi South 17.3 mph 21.9 mph N/A   Clear
11:52 AM 37.0 °F 29.3 °F 19.9 °F 50% 30.22 in 10.0 mi SSW 11.5 mph 25.3 mph N/A   Clear
12:52 PM 39.0 °F 29.9 °F 21.9 °F 50% 30.18 in 10.0 mi SSW 17.3 mph 25.3 mph N/A   Clear
1:52 PM 41.0 °F 33.1 °F 21.9 °F 47% 30.17 in 10.0 mi SSW 15.0 mph 21.9 mph N/A   Clear
2:52 PM 41.0 °F 32.8 °F 23.0 °F 49% 30.16 in 10.0 mi SSW 16.1 mph 27.6 mph N/A   Clear
3:52 PM 39.0 °F 28.8 °F 24.1 °F 55% 30.14 in 10.0 mi South 21.9 mph 27.6 mph N/A   Clear
4:52 PM 37.0 °F 28.9 °F 24.1 °F 59% 30.13 in 10.0 mi South 12.7 mph 26.5 mph N/A   Clear
5:52 PM 35.1 °F 26.4 °F 25.0 °F 67% 30.13 in 9.0 mi South 12.7 mph 25.3 mph N/A   Clear
6:52 PM 34.0 °F 25.0 °F 25.0 °F 70% 30.14 in 9.0 mi South 12.7 mph - N/A   Clear
7:52 PM 32.0 °F 24.2 °F 25.0 °F 75% 30.14 in 8.0 mi South 9.2 mph - N/A   Clear
8:52 PM 32.0 °F 23.6 °F 25.0 °F 75% 30.14 in 9.0 mi South 10.4 mph - N/A   Clear
9:52 PM 32.0 °F 23.6 °F 25.0 °F 75% 30.15 in 9.0 mi SSW 10.4 mph - N/A   Clear
10:52 PM 30.9 °F 23.5 °F 25.0 °F 79% 30.14 in 8.0 mi SSW 8.1 mph - N/A   Clear
11:52 PM 30.0 °F 22.4 °F 24.1 °F 79% 30.13 in 7.0 mi South 8.1 mph - N/A   Clear